Flag for U.S.A. Weather past 2 weeks in Madison, Wisconsin, U.S.A.

Now
39 °F

Passing clouds.


Feels Like: 33 °F
Forecast: 35 / 47 °F
Wind: 8 mph from West

Location: Dane County Regional-Truax Field

Current Time: Apr 21, 2015 at 5:27:37 AM

Latest Report: Apr 21, 2015 at 4:53 AM


Visibility: 10 mi

Pressure: 29.52 "Hg

Humidity: 65%

Dew point: 28 °F

Location of MadisonLocation

Historic Weather in Madison — Graph

°F

Madison temperature yesterday

Maximum temperature yesterday: 50 °F (at 12:53 AM)
Minimum temperature yesterday: 40 °F (at 8:53 AM)
Average temperature yesterday: 45 °F

Past Weeks' High & Low Weather Summary

 TemperatureHumidityPressure
High78 °F (Apr 17, 3:53 PM)97% (Apr 8, 6:01 AM)30.32 "Hg (Apr 8, 6:01 AM)
Low29 °F (Apr 6, 6:53 AM)13% (Apr 14, 4:53 PM)29.22 "Hg (Apr 20, 3:53 AM)
Average51 °F61%29.94 "Hg
* Reported Apr 6 3:53 AM — Apr 21 3:53 AM, Madison, Weather by CustomWeather, © 2015

Note: Actual official high and low records may vary slightly from our data, if they occured in-between our weather recording intervals... More about our weather records

Advertising

Madison weather history for previous 24 hours

 ConditionsComfort  
Time TempWeatherWind HumidityBarometerVisibility
3:53 AM
Tue, Apr 21
39 °FPassing clouds.8 mph65%29.52 "Hg10 mi
2:53 AM40 °FMostly cloudy.6 mph65%29.52 "Hg10 mi
1:53 AM40 °FPassing clouds.8 mph65%29.53 "Hg10 mi
12:53 AM41 °FMostly cloudy.7 mph65%29.54 "Hg10 mi
11:53 PM
Mon, Apr 20
41 °FOvercast.10 mph67%29.55 "Hg10 mi
10:53 PM42 °FPassing clouds.9 mph57%29.55 "Hg10 mi
9:53 PM42 °FMostly cloudy.7 mph57%29.56 "Hg10 mi
8:53 PM43 °FOvercast.15 mph58%29.55 "Hg10 mi
7:53 PM43 °FOvercast.6 mph60%29.54 "Hg10 mi
6:53 PM43 °FMore clouds than sun.9 mph58%29.54 "Hg10 mi
5:53 PM43 °FMostly cloudy.12 mph60%29.52 "Hg10 mi
4:53 PM43 °FMore clouds than sun.10 mph62%29.49 "Hg10 mi
3:53 PM42 °FMostly cloudy.12 mph65%29.48 "Hg10 mi
2:53 PM44 °FMostly cloudy.15 mph68%29.45 "Hg10 mi
1:53 PM44 °FMostly cloudy.16 mph71%29.43 "Hg10 mi
12:53 PM44 °FLight rain. Cloudy.14 mph73%29.40 "Hg10 mi
11:53 AM44 °FLight rain. Overcast.16 mph76%29.39 "Hg10 mi
10:53 AM42 °FLight rain. Mostly cloudy.15 mph82%29.36 "Hg10 mi
9:53 AM40 °FLight rain. Mostly cloudy.15 mph86%29.34 "Hg10 mi
9:02 AM40 °FLight rain. Mostly cloudy.17 mph86%29.32 "Hg10 mi
8:53 AM40 °FLight rain. Mostly cloudy.16 mph86%29.32 "Hg8 mi
8:04 AM44 °FLight rain. Mostly cloudy.18 mph85%29.28 "Hg10 mi
7:53 AM46 °FLight rain. Cloudy.14 mph86%29.28 "Hg10 mi
6:53 AM48 °FLight rain. Fog.13 mph89%29.25 "Hg5 mi
5:53 AM50 °FLight rain. Fog.5 mph93%29.23 "Hg4 mi
5:02 AM50 °FRain. Fog.6 mph89%29.23 "Hg2 mi
Weather by CustomWeather, © 2015

See weather overviewHow to use our weather pages